2023/09/30 00:00:00, 0.3,16.2
2023/09/30 00:10:00, 0.3,16.6
2023/09/30 00:20:00, 0.2,16.3
2023/09/30 00:30:00, 0.2,16.4
2023/09/30 00:40:00, 0.2,16.3
2023/09/30 00:50:00, 0.2,16.2
2023/09/30 01:00:00, 0.2,16.3
2023/09/30 01:10:00, 0.3,16.2
2023/09/30 01:20:00, 0.2,16.3
2023/09/30 01:30:00, 0.3,16.0
2023/09/30 01:40:00, 4.1,16.3
2023/09/30 01:50:00, 7.5,16.3
2023/09/30 02:00:00, 8.0,16.0
2023/09/30 02:10:00, 8.1,16.1
2023/09/30 02:20:00, 8.2,16.5
2023/09/30 02:30:00, 8.3,16.1
2023/09/30 02:40:00, 8.3,16.0
2023/09/30 02:50:00, 8.4,15.8
2023/09/30 03:00:00, 8.6,15.9
2023/09/30 03:10:00, 8.7,16.1
2023/09/30 03:20:00, 8.9,16.0
2023/09/30 03:30:00, 9.2,16.1
2023/09/30 03:40:00, 9.4,16.1
2023/09/30 03:50:00, 9.5,16.3
2023/09/30 04:00:00, 9.8,16.3
2023/09/30 04:10:00,10.0,15.9
2023/09/30 04:20:00,10.0,16.1
2023/09/30 04:30:00, 9.7,15.9
2023/09/30 04:40:00, 7.7,16.0
2023/09/30 04:50:00, 2.3,16.0
2023/09/30 05:00:00, 5.9,15.9
2023/09/30 05:10:00, 9.4,15.7
2023/09/30 05:20:00, 9.5,15.8
2023/09/30 05:30:00, 9.6,15.9
2023/09/30 05:40:00, 9.6,16.2
2023/09/30 05:50:00, 9.6,15.9
2023/09/30 06:00:00, 9.5,16.2
2023/09/30 06:10:00, 8.6,16.0
2023/09/30 06:20:00, 8.3,16.3
2023/09/30 06:30:00, 9.2,16.3
2023/09/30 06:40:00, 9.2,16.8
2023/09/30 06:50:00, 9.3,17.5
2023/09/30 07:00:00, 9.4,17.9
2023/09/30 07:10:00, 9.4,20.3
2023/09/30 07:20:00, 9.3,20.8
2023/09/30 07:30:00, 9.2,22.2
2023/09/30 07:40:00, 9.2,24.9
2023/09/30 07:50:00, 9.2,26.4
2023/09/30 08:00:00, 9.2,27.3
2023/09/30 08:10:00, 8.6,28.2
2023/09/30 08:20:00, 8.6,29.5
2023/09/30 08:30:00, 8.8,27.4
2023/09/30 08:40:00, 8.8,29.6
2023/09/30 08:50:00, 8.8,30.5
2023/09/30 09:00:00, 9.0,31.0
2023/09/30 09:10:00, 9.1,30.8
2023/09/30 09:20:00, 9.4,30.7
2023/09/30 09:30:00, 9.4,30.7
2023/09/30 09:40:00, 9.2,30.0
2023/09/30 09:50:00, 9.2,27.9
2023/09/30 10:00:00, 9.3,27.5
2023/09/30 10:10:00, 9.6,28.6
2023/09/30 10:20:00, 9.6,29.3
2023/09/30 10:30:00, 9.5,30.7
2023/09/30 10:40:00, 9.9,31.4
2023/09/30 10:50:00,10.1,31.1
2023/09/30 11:00:00, 9.9,30.9
2023/09/30 11:10:00, 9.6,29.1
2023/09/30 11:20:00, 9.5,28.2
2023/09/30 11:30:00, 9.7,27.5
2023/09/30 11:40:00, 9.6,27.8
2023/09/30 11:50:00, 9.6,28.6
2023/09/30 12:00:00, 9.3,27.6
2023/09/30 12:10:00, 8.9,27.4
2023/09/30 12:20:00, 8.9,27.4
2023/09/30 12:30:00, 8.7,27.8
2023/09/30 12:40:00, 8.7,26.5
2023/09/30 12:50:00, 8.5,26.8
2023/09/30 13:00:00, 8.7,26.9
2023/09/30 13:10:00, 8.7,26.1
2023/09/30 13:20:00, 8.5,27.1
2023/09/30 13:30:00, 8.4,26.6
2023/09/30 13:40:00, 8.5,27.1
2023/09/30 13:50:00, 8.5,26.9
2023/09/30 14:00:00, 8.4,26.1
2023/09/30 14:10:00, 8.2,25.6
2023/09/30 14:20:00, 8.2,25.8
2023/09/30 14:30:00, 8.1,24.9
2023/09/30 14:40:00, 7.9,24.3
2023/09/30 14:50:00, 7.8,24.0
2023/09/30 15:00:00, 7.5,23.5
2023/09/30 15:10:00, 6.3,22.7
2023/09/30 15:20:00, 4.8,22.1
2023/09/30 15:30:00, 5.1,21.5
2023/09/30 15:40:00, 5.2,21.4
2023/09/30 15:50:00, 5.3,21.2
2023/09/30 16:00:00, 5.3,21.0
2023/09/30 16:10:00, 5.4,20.8
2023/09/30 16:20:00, 5.6,20.8
2023/09/30 16:30:00, 4.7,20.6
2023/09/30 16:40:00, 4.5,20.0
2023/09/30 16:50:00, 4.5,19.8
2023/09/30 17:00:00, 4.2,19.7
2023/09/30 17:10:00, 4.1,19.4
2023/09/30 17:20:00, 4.0,19.4
2023/09/30 17:30:00, 3.9,18.9
2023/09/30 17:40:00, 3.9,18.8
2023/09/30 17:50:00, 3.9,19.0
2023/09/30 18:00:00, 3.9,18.7
2023/09/30 18:10:00, 3.8,18.9
2023/09/30 18:20:00, 3.7,18.7
2023/09/30 18:30:00, 3.6,18.9
2023/09/30 18:40:00, 3.7,18.5
2023/09/30 18:50:00, 3.8,18.7
2023/09/30 19:00:00, 3.7,18.6
2023/09/30 19:10:00, 3.7,18.8
2023/09/30 19:20:00, 3.7,18.7
2023/09/30 19:30:00, 3.7,19.1
2023/09/30 19:40:00, 3.9,18.8
2023/09/30 19:50:00, 3.8,18.9
2023/09/30 20:00:00, 3.7,18.8
2023/09/30 20:10:00, 3.7,18.6
2023/09/30 20:20:00, 3.7,18.4
2023/09/30 20:30:00, 3.8,18.6
2023/09/30 20:40:00, 3.7,18.7
2023/09/30 20:50:00, 3.5,18.5
2023/09/30 21:00:00, 3.5,18.6
2023/09/30 21:10:00, 3.7,18.7
2023/09/30 21:20:00, 3.6,18.5
2023/09/30 21:30:00, 3.6,18.6
2023/09/30 21:40:00, 3.6,18.6
2023/09/30 21:50:00, 3.7,18.3
2023/09/30 22:00:00, 3.8,18.5
2023/09/30 22:10:00, 3.9,18.4
2023/09/30 22:20:00, 3.9,18.5
2023/09/30 22:30:00, 4.0,18.4
2023/09/30 22:40:00, 4.1,18.4
2023/09/30 22:50:00, 4.1,18.5
2023/09/30 23:00:00, 4.2,18.4
2023/09/30 23:10:00, 4.1,18.4
2023/09/30 23:20:00, 4.3,18.3
2023/09/30 23:30:00, 4.4,18.4
2023/09/30 23:40:00, 4.4,18.4
2023/09/30 23:50:00, 5.2,18.4
